This is the latest recevied weather packets stored in our database for station/object KK7KRZ. If no packets are shown the sender has not sent any weather packets the latest 10 day(s).
| Time | Temp. | Humidity | Pressure | Rain* | Wind** | Luminosity | Snow |
|---|---|---|---|---|---|---|---|
| 1777930090 | 21.11° C | 68% | 1012.4 hPa | 0 mm | - | 619 W/m² | - |
| 1777929786 | 20.56° C | 65% | 1012.4 hPa | 0 mm | - | 385 W/m² | - |
| 1777929484 | 20.56° C | 65% | 1012.6 hPa | 0 mm | - | 585 W/m² | - |
| 1777929179 | 20.56° C | 66% | 1012.5 hPa | 0 mm | - | 580 W/m² | - |
| 1777928877 | 20° C | 67% | 1012.7 hPa | 0 mm | - | 595 W/m² | - |
| 1777928574 | 19.44° C | 69% | 1012.8 hPa | 0 mm | - | 633 W/m² | - |
| 1777928271 | 19.44° C | 70% | 1012.7 hPa | 0 mm | - | 645 W/m² | - |
| 1777927969 | 19.44° C | 69% | 1012.9 hPa | 0 mm | - | 668 W/m² | - |
| 1777927667 | 20° C | 67% | 1012.7 hPa | 0 mm | - | 632 W/m² | - |
| 1777927365 | 19.44° C | 67% | 1013.1 hPa | 0 mm | - | 685 W/m² | - |
| 1777927064 | 20° C | 68% | 1013.1 hPa | 0 mm | - | 743 W/m² | - |
| 1777926761 | 19.44° C | 69% | 1012.8 hPa | 0 mm | - | 714 W/m² | - |
| 1777926461 | 18.89° C | 69% | 1013.1 hPa | 0 mm | - | 651 W/m² | - |
| 1777926158 | 18.89° C | 73% | 1013.1 hPa | 0 mm | - | 606 W/m² | - |
| 1777925855 | 18.89° C | 71% | 1013.1 hPa | 0 mm | - | 579 W/m² | - |
| 1777925552 | 18.33° C | 70% | 1012.9 hPa | 0 mm | - | 660 W/m² | - |
| 1777925250 | 18.89° C | 71% | 1013 hPa | 0 mm | - | 354 W/m² | - |
| 1777924946 | 18.89° C | 70% | 1013.3 hPa | 0 mm | - | 248 W/m² | - |
| 1777924642 | 18.33° C | 73% | 1013.3 hPa | 0 mm | - | 750 W/m² | - |
| 1777924339 | 18.33° C | 71% | 1013.2 hPa | 0 mm | - | 284 W/m² | - |
| 1777924036 | 17.78° C | 74% | 1013.2 hPa | 0 mm | - | 671 W/m² | - |
| 1777923732 | 17.22° C | 74% | 1013.5 hPa | 0 mm | - | 223 W/m² | - |
| 1777923428 | 18.33° C | 71% | 1013.2 hPa | 0 mm | - | 372 W/m² | - |
| 1777923126 | 18.33° C | 71% | 1013.1 hPa | 0 mm | - | 753 W/m² | - |
| 1777922824 | 18.33° C | 71% | 1013.3 hPa | 0 mm | - | 767 W/m² | - |
* Rain latest hour (hover to see other rain measurements)
** Current wind speed in m/s (hover to see current wind gust speed)